Weather Roundup
Issued by NWS

Home | Current Version | Previous Version | Graphics & Text | Print | Product List | Glossary Off
Versions: 1 2 3 4 5 6 7 8 9 10 11 12 13 14 15 16 17 18 19 20 21 22 23 24 25 26 27 28 29 30 31 32 33 34 35 36 37 38 39 40 41 42 43 44 45 46 47 48 49 50

195
NZUS93 KARX 310610
HRRWXR

CURRENT HOURLY OBSERVATIONS ACROSS
MUCH OF THE UPPER MISSISSIPPI VALLEY
NATIONAL WEATHER SERVICE LA CROSSE WI
100 AM CDT TUE MAY 31 2016


...SOUTHEAST MINNESOTA...


CITY           SKY/WX    TMP DP  RH WIND       PRES   REMARKS
ROCHESTER      CLOUDY    66  58  75 S13       29.95F
ROCHESTER/MAYO FAIR      67  56  67 SE8       29.95F
WINONA         LGT RAIN  70  57  64 S3        29.98R
AUSTIN         LGT RAIN  64  57  77 SE8       29.94F
ALBERT LEA     LGT RAIN  66  55  68 S14G25    29.90F
DODGE CENTER   CLOUDY    66  57  72 S14       29.94F
PRESTON        CLOUDY    64  57  78 S21       29.99F
OWATONNA       PTCLDY    66  57  72 SE13      29.91F
FARIBAULT      PTCLDY    68  57  68 SE14      29.89F
$$

...ELSEWHERE IN MINNESOTA...


CITY           SKY/WX    TMP DP  RH WIND       PRES   REMARKS
MINNEAPOLIS    CLOUDY    71  57  61 SE15      29.88F
INTNL FALLS    CLOUDY    57  48  72 E12       29.96F
DULUTH         PTCLDY    53  45  74 E26G36    29.98S
RED WING       CLOUDY    70  54  56 S6        29.93R
REDWOOD FALLS  LGT RAIN  69  59  70 S14       29.82F
MANKATO        CLOUDY    68  54  60 S12G22    29.86F
WORTHINGTON    CLOUDY    65  58  78 SE17      29.85S
FAIRMONT       CLOUDY    66  55  68 SE14G22   29.86F
$$

...SOUTHWEST WISCONSIN...


CITY           SKY/WX    TMP DP  RH WIND       PRES   REMARKS
LA CROSSE      LGT RAIN  68  60  75 S13       29.99R
PRAIRIE DU CHI RAIN      62  61  96 NW5       30.00F
BOSCOBEL       LGT RAIN  65  61  87 W5        30.01R
LONE ROCK      CLOUDY    69  56  62 CALM      29.99R
PLATTEVILLE    CLOUDY    69  57  66 W3        29.99S
FORT MC COY    LGT RAIN  64  59  85 S3        30.02R
MAUSTON-NEW LI CLOUDY    63  57  81 SW12      29.99R
VIROQUA        CLOUDY    64  60  86 SW5       30.02F
WIS DELLS      CLOUDY    64  53  65 E5        29.97S
$$

...ELSEWHERE IN WISCONSIN...


CITY           SKY/WX    TMP DP  RH WIND       PRES   REMARKS
MILWAUKEE      CLOUDY    61  55  81 CALM      30.00F
MADISON        CLOUDY    68  57  68 SE8       29.97F
GREEN BAY      MOCLDY    64  56  75 S5        29.99R
EAU CLAIRE     CLOUDY    68  55  63 S9        29.94S
BLACK RVR FLS  CLOUDY    61  61 100 S6        30.00R
MEDFORD        CLOUDY    60  55  82 CALM      29.98F
WAUSAU         CLOUDY    61  55  81 E5        29.98R
WIS RAPIDS     CLOUDY    63  50  62 SE7       29.99F
MARSHFIELD     PTCLDY    65  51  60 CALM      29.97F
RICE LAKE      CLOUDY    67  55  63 SE8       29.94F
$$

...NORTHEAST IOWA...


CITY           SKY/WX    TMP DP  RH WIND       PRES   REMARKS
WATERLOO       CLOUDY    62  59  90 E6        29.95F
DUBUQUE        CLOUDY    65  62  90 N5        29.99S
DECORAH        LGT RAIN  63  61  94 VRB5G14   30.02S
MASON CITY     CLOUDY    64  59  83 SE10      29.93F
CHARLES CITY   CLOUDY    64  63  94 SE7       29.95F
OELWEIN        CLOUDY    64  59  82 E9        29.97F
$$

...ELSEWHERE IN IOWA...


CITY           SKY/WX    TMP DP  RH WIND       PRES   REMARKS
DES MOINES     CLOUDY    69  57  65 SE6       29.93F
IOWA CITY      PTCLDY    70  61  73 N12       29.98S
FORT DODGE     MOCLDY    64  57  77 SE6       29.93R
MARSHALLTOWN   CLOUDY    64  60  87 E13       29.96S
CEDAR RAPIDS   MOCLDY    65  61  87 N7        29.97F
$$

...NORTHERN ILLINOIS...


CITY           SKY/WX    TMP DP  RH WIND       PRES   REMARKS
CHICAGO-OHARE  CLOUDY    68  55  63 E5        29.99S
CHICAGO-MIDWAY CLOUDY    70  54  56 E9        29.99S
MOLINE         CLEAR     70  62  76 CALM      29.96S
ROCKFORD       PTCLDY    67  55  65 SE5       30.00S
PEORIA         CLOUDY    68  62  81 CALM      29.97S
$$

NOTE: "FAIR" INDICATES FEW OR NO CLOUDS BELOW 12,000 FEET WITH NO
SIGNIFICANT WEATHER AND/OR OBSTRUCTIONS TO VISIBILITY. WIND
SPEEDS ARE IN MILES-PER-HOUR.




USA.gov is the U.S. government's official web portal to all federal, state and local government web resources and services.